User: anonymous   Login
Location: Hoyos del Collado
(40.3594°N, 5.2003°W)
Time: 16:29:13
(UTC+00:00)
Language:

ATLAS 3B R/B - Orbit

View from above orbital plane
View from above orbital plane
View from above satellite
View from above satellite

Ground track
Ground track

The orbit data is extracted from the following two-line orbital elements,

1 28538U 05004B   24173.78895800 -.00000046  00000-0  63394-4 0  9997
2 28538  63.8259 318.2841 0207241 296.4113  61.5778 13.43260054  7728
Epoch (UTC): 21 June 2024 18:56:05
Eccentricity: 0.0207241
inclination: 63.8259°
perigee height: 942 km
apogee height: 1252 km
right ascension of ascending node: 318.2841°
argument of perigee: 296.4113°
revolutions per day: 13.43260054
mean anomaly at epoch: 61.5778°
orbit number at epoch: 772

The dashed part of the orbit path shows where the satellite is in the earth's shadow,  

DLR